[Date Prev][Date Next][Thread Prev][Thread Next] - [Date Index][Thread Index][Author Index]
2 Line ISS Keps 10-26
- Subject: [sarex] 2 Line ISS Keps 10-26
- From: "Dave Larsen PhD" <doc@xxxxxxxxxxx>
- Date: Fri, 26 Oct 2001 03:52:10 -0700
ISS
1 25544U 98067A 01299.14386574 .00062489 00000-0 80802-3 0 6491
2 25544 51.6388 150.0588 0008609 246.0928 250.9499 15.58288887167512
----
Via the sarex mailing list at AMSAT.ORG courtesy of AMSAT-NA.
To unsubscribe, send "unsubscribe sarex" to Majordomo@amsat.org
AMSAT Home